Simultaneous Nadir Overpasses (SNOs) Predictions

Prediction of SNOs near US between AQUA and NPP Satellite Orbit:

Table of predicted SNOs near US for the next 10.0 days since TLE Epoch: 7/16/2016
Index Date (AQUA) Time (AQUA) AQUA Lat,Lon Date (NPP) Time (NPP) NPP Lat,Lon Distance(km) Time Diff (sec)
1 07/16/2016 09:22:40 25.67,-112.88 07/16/2016 09:15:54 25.78,-113.28 41.47 406
2 07/19/2016 06:30:00 46.38, -65.03 07/19/2016 06:31:16 46.78, -67.01 158.17 76
3 07/19/2016 08:07:53 49.94, -88.33 07/19/2016 08:11:42 50.46, -90.81 185.72 229
4 07/19/2016 09:46:46 49.94,-113.05 07/19/2016 09:53:10 50.56,-116.14 230.08 384
5 07/21/2016 19:06:02 49.99, -92.52 07/21/2016 19:01:59 49.64, -94.38 139.18 243
6 07/21/2016 20:44:55 49.99,-117.24 07/21/2016 20:43:27 49.54,-119.71 184.46 88
7 07/24/2016 08:34:21 21.28,-101.57 07/24/2016 08:26:22 21.29,-101.72 16.28 479
8 07/24/2016 10:10:43 30.37,-124.04 07/24/2016 10:05:15 30.47,-124.70 64.46 328




NCC Satellite Simultaneous Nadir Overpasses (SNOs) Prediction Service
